User: anonymous   Login
Location: ShareBrained
(45.5589°N, 122.6491°W)
Time: 08:19:23
(UTC-08:00)
Language:

NOAA 19 - Orbit

View from above orbital plane
View from above orbital plane
View from above satellite
View from above satellite

Ground track
Ground track

The orbit data is extracted from the following two-line orbital elements,

1 33591U 09005A   20056.10578914 -.00000018  00000-0  15599-4 0  9996
2 33591  99.1955  58.5036 0014544  36.9671 323.2500 14.12396751569394
Epoch (UTC): 25 February 2020 02:32:20
Eccentricity: 0.0014544
inclination: 99.1955°
perigee height: 840 km
apogee height: 861 km
right ascension of ascending node: 58.5036°
argument of perigee: 36.9671°
revolutions per day: 14.12396751
mean anomaly at epoch: 323.2500°
orbit number at epoch: 56939

The dashed part of the orbit path shows where the satellite is in the earth's shadow,  

DLR